Change the Weather History Date:

Friday, March 22, 2013

  Actual Average Record
Temperature  
Mean Temperature 73 °F 68 °F  
Max Temperature 88 °F 81 °F 98 °F (2004)
Min Temperature 57 °F 55 °F 36 °F (1924)
Degree Days  
Heating Degree Days 0 1  
Month to date heating degree days 16 42  
Since 1 July heating degree days 705 665  
Cooling Degree Days 8 4  
Month to date cooling degree days 120 72  
Year to date cooling degree days 131 108  
Growing Degree Days 22 (Base 50)    
Moisture  
Dew Point 33 °F    
Average Humidity 30    
Maximum Humidity 52    
Minimum Humidity 7    
Precipitation  
Precipitation 0.00 in 0.01 in 0.34 in (1909)
Month to date precipitation 0.08 0.25  
Year to date precipitation 1.11 1.01  
Sea Level Pressure  
Sea Level Pressure 29.71 in    
Wind  
Wind Speed 5 mph (WNW)    
Max Wind Speed 16 mph    
Max Gust Speed 21 mph    
Visibility 10 miles    
Events      
T = Trace of Precipitation, MM = Missing Value Source: NWS Daily Summary

Daily Weather History Graph

Daily Weather History Graph

Search for Another Location

Airport or City:

Trip Planner

Search our weather history database for the weather conditions in past years. The results will help you decide how hot, cold, wet, or windy it might be!

Date:

Astronomy

Mar. 22, 2013 Rise Set
Actual Time 6:39 AM MST 6:51 PM MST
Civil Twilight 6:14 AM MST 7:16 PM MST
Nautical Twilight 5:45 AM MST 7:45 PM MST
Astronomical Twilight 5:16 AM MST 8:14 PM MST
Moon 2:35 PM MST (3/22) 3:28 AM MST (3/22)
Length of Visible Light 13h 01m
Length of Day
12h 12m
Waxing Gibbous, 78% of the Moon is Illuminated
Mar 22
Waxing Gibbous
Mar 27
Full
Apr 2
Last Quarter
Apr 10
New
Apr 18
First Quarter

Hourly Weather History & Observations

Time (MST) Temp. Dew Point Humidity Pressure Visibility Wind Dir Wind Speed Gust Speed Precip Events Conditions
12:55 AM 62.1 °F 44.1 °F 52% 29.67 in 10.0 mi Calm Calm - N/A   Partly Cloudy
1:55 AM 62.1 °F 42.1 °F 48% 29.67 in 10.0 mi SW 4.6 mph - N/A   Clear
2:55 AM 63.0 °F 37.9 °F 40% 29.65 in 10.0 mi South 3.5 mph - N/A   Clear
3:55 AM 63.0 °F 37.0 °F 38% 29.66 in 10.0 mi NNE 3.5 mph - N/A   Clear
4:55 AM 61.0 °F 37.9 °F 42% 29.66 in 10.0 mi Calm Calm - N/A   Clear
5:55 AM 57.9 °F 39.0 °F 49% 29.66 in 10.0 mi SSW 3.5 mph - N/A   Clear
6:55 AM 59.0 °F 39.9 °F 49% 29.69 in 10.0 mi Calm Calm - N/A   Clear
7:55 AM 62.1 °F 41.0 °F 46% 29.72 in 10.0 mi Calm Calm - N/A   Clear
8:55 AM 70.0 °F 32.0 °F 25% 29.74 in 10.0 mi North 4.6 mph - N/A   Clear
9:55 AM 73.9 °F 30.9 °F 21% 29.75 in 10.0 mi North 6.9 mph - N/A   Clear
10:55 AM 77.0 °F 32.0 °F 19% 29.75 in 10.0 mi Variable 6.9 mph - N/A   Clear
11:55 AM 81.0 °F 25.0 °F 13% 29.74 in 10.0 mi North 15.0 mph 20.7 mph N/A   Clear
12:55 PM 82.9 °F 23.0 °F 11% 29.73 in 10.0 mi Variable 6.9 mph 17.3 mph N/A   Clear
1:55 PM 84.9 °F 21.9 °F 10% 29.71 in 10.0 mi WNW 11.5 mph 17.3 mph N/A   Clear
2:55 PM 87.1 °F 19.9 °F 8% 29.69 in 10.0 mi NNW 9.2 mph 16.1 mph N/A   Clear
3:55 PM 88.0 °F 18.0 °F 8% 29.68 in 10.0 mi North 9.2 mph - N/A   Clear
4:55 PM 87.1 °F 18.0 °F 8% 29.68 in 10.0 mi NNW 5.8 mph - N/A   Clear
5:55 PM 82.9 °F 30.9 °F 15% 29.68 in 10.0 mi West 10.4 mph - N/A   Clear
6:55 PM 78.1 °F 36.0 °F 22% 29.69 in 10.0 mi WSW 5.8 mph - N/A   Clear
7:55 PM 73.0 °F 37.9 °F 28% 29.70 in 10.0 mi WSW 6.9 mph - N/A   Clear
8:55 PM 72.0 °F 36.0 °F 27% 29.73 in 10.0 mi WSW 5.8 mph - N/A   Clear
9:55 PM 69.1 °F 37.9 °F 32% 29.74 in 10.0 mi Calm Calm - N/A   Clear
10:55 PM 66.9 °F 37.0 °F 33% 29.77 in 10.0 mi SSE 4.6 mph - N/A   Clear
11:55 PM 64.0 °F 37.0 °F 37% 29.78 in 10.0 mi South 3.5 mph - N/A   Clear